STARLINK-11727 [DTC] (64123 NORAD) Tracking and Keplerian Element Data

This shows tracking and keplerian element data for the satellite.

Feedback or suggestion? Click here.




ElementValue
Catalog64123
NameSTARLINK-11727 [DTC]
Epoch Orbit3410
Epoch Day354.00806452
Epoch Year2025
RAAN94.4713
Inclination43.0002
Eccentricity0.0001515
Argument of Perigee336.6979
Mean Anonmoly23.382
Mean Motion15.71081021
Decay Rate0.00200209
L11 64123U 25111A 25354.00806452 .00200209 00000+0 15111-2 0 9993
L22 64123 43.0002 94.4713 0001515 336.6979 23.3820 15.71081021 34102



Live tracking and technical data element details for STARLINK-11727 [DTC] (NORAD 64123). STARLINK-11727 [DTC] can be tracked NOW for your location showing map with azimuth and elevation plus other details from your city location.







IsCatalogInMostPopularTable: catalog: 64123, numindb: 2
Update: records affected: 1



GetName: 64123 STARLINK-11727 [DTC]

Hit Count: updated at: Sun, 08 Feb 2026 17:57:59 GMT